Location: Berg
(47.2344°N, 9.5296°E)
Time: 22:12:51
(UTC+00:00)

USA 234 - Pass Details

Date: 24 January 2021
Orbit: 1100 x 1107 km, 123.0° (Epoch: 01 March)

Event Time Altitude Azimuth Distance (km) Brightness Sun altitude
Exits shadow 19:16:49 54° 9° (N) 1,324 3.5 -31.1°
Drops below altitude 10° 19:22:45 10° 308° (NW) 2,967 6.2 -32.2°
Sets 19:25:17 0° 304° (NW) 3,928 7.0 -32.6°
